Date,TemperatureHighF,TemperatureAvgF,TemperatureLowF,DewpointHighF,DewpointAvgF,DewpointLowF,HumidityHigh,HumidityAvg,HumidityLow,PressureMaxIn,PressureMinIn,WindSpeedMaxMPH,WindSpeedAvgMPH,GustSpeedMaxMPH,PrecipitationSumIn
2013-1-1,32,22,10,28,16,2,90,75,61,29.94,29.77,23,7,23,0.00
2013-1-2,24,17,8,20,12,4,90,79,67,30.12,29.91,14,6,21,0.00
2013-1-3,28,19,8,24,15,4,94,84,74,30.12,29.91,17,5,21,0.00
2013-1-4,34,30,27,24,20,14,82,65,54,29.94,29.83,25,10,28,0.00
2013-1-5,32,30,23,28,22,14,90,72,59,30.21,29.94,23,7,28,0.04
2013-1-6,37,33,29,33,26,20,94,75,62,30.06,29.85,17,7,18,0.00
2013-1-7,35,27,19,33,22,13,95,83,67,30.33,29.97,13,6,17,0.00
2013-1-8,38,30,23,22,19,15,78,64,50,30.30,30.15,13,4,13,0.00
2013-1-9,46,33,19,31,23,14,90,66,47,30.27,29.94,31,8,37,0.00
2013-1-10,38,33,25,26,23,20,88,67,57,30.50,30.21,22,6,24,0.00
2013-1-11,40,36,25,38,28,20,94,73,53,30.45,29.97,17,7,22,0.00
2013-1-12,49,43,39,46,40,37,94,91,89,30.06,30.00,13,5,18,0.00
2013-1-13,57,50,39,53,47,37,92,88,82,30.06,29.83,18,5,20,0.00
2013-1-14,53,40,30,51,32,18,93,75,58,30.30,29.80,20,7,25,0.00
2013-1-15,31,29,27,22,20,17,76,68,57,30.30,30.12,8,3,10,0.00
2013-1-16,34,30,27,30,26,19,94,85,63,30.15,29.77,13,5,17,0.00
2013-1-17,34,26,18,26,16,8,90,66,58,30.09,29.83,17,6,25,0.00
2013-1-18,26,16,5,14,7,1,84,68,49,30.30,30.03,17,6,22,0.04
2013-1-19,46,38,26,26,19,11,51,46,44,30.06,29.68,18,11,24,0.00
2013-1-20,44,33,18,32,18,6,80,54,44,29.97,29.47,33,13,42,0.00
2013-1-21,22,17,11,16,8,3,90,70,56,29.97,29.77,15,5,15,0.00
2013-1-22,14,8,6,8,0,-2,75,69,69,30.03,29.77,26,11,27,0.00
2013-1-23,8,2,-11,0,-5,-18,69,69,69,30.09,30.03,10,4,13,0.00
2013-1-24,9,3,-8,1,-5,-15,69,69,69,30.33,30.00,19,5,23,0.00
2013-1-25,16,9,0,4,-1,-11,69,64,59,30.33,29.97,8,2,10,0.00
2013-1-26,16,5,-5,5,-6,-16,62,60,59,30.27,29.97,9,2,10,0.00
2013-1-27,23,14,6,16,7,-2,91,73,53,30.45,30.27,8,2,11,0.00
2013-1-28,38,29,13,36,24,3,96,81,56,30.36,29.85,16,6,16,0.00
2013-1-29,38,38,38,36,36,36,93,93,93,30.03,29.85,12,5,17,0.00
2013-1-30,60,50,38,55,47,36,93,89,79,29.85,29.18,18,9,25,0.00
2013-1-31,55,33,19,53,25,14,91,74,52,29.62,29.03,32,14,38,0.00
2013-2-1,20,17,15,17,9,4,92,68,58,30.09,29.62,21,10,26,0.00
2013-2-2,18,15,10,11,6,2,77,68,56,30.09,29.91,13,6,17,0.00
2013-2-3,25,15,2,16,8,-4,88,74,55,29.91,29.71,13,3,15,0.00
2013-2-4,21,18,16,13,6,4,80,61,50,29.85,29.74,24,8,27,0.00
2013-2-5,28,19,12,17,10,6,83,67,53,29.88,29.77,8,2,10,0.00
2013-2-6,27,21,6,22,10,-7,88,65,47,30.30,29.80,24,6,24,0.00
2013-2-7,31,20,2,13,5,-10,81,53,46,30.36,30.12,11,4,16,0.00
2013-2-8,34,30,26,32,25,11,95,82,53,30.12,29.71,15,6,26,0.00
2013-2-9,30,30,30,29,29,29,95,95,95,30.30,29.83,17,7,20,0.00
2013-2-10,30,30,30,29,29,29,95,95,95,30.36,30.03,17,4,20,0.00
2013-2-11,30,30,30,29,29,29,95,95,95,30.03,30.03,6,6,13,0.00
2013-2-12,33,31,29,24,21,19,72,65,58,29.91,29.83,24,10,27,0.00
2013-2-13,37,30,22,22,19,13,74,63,48,29.85,29.68,8,4,12,0.00
2013-2-14,40,30,16,32,21,11,91,72,47,29.88,29.71,13,4,15,0.00
2013-2-15,38,33,24,32,25,13,91,73,49,29.97,29.77,17,6,23,0.00
2013-2-16,28,20,8,19,8,-3,85,60,47,29.97,29.83,12,4,14,0.00
2013-2-17,15,10,7,5,-1,-4,65,61,59,30.00,29.77,24,8,26,0.00
2013-2-18,28,17,8,12,5,-2,75,59,48,30.18,29.94,15,7,22,0.00
2013-2-19,37,33,28,32,24,11,93,72,47,29.97,29.59,23,8,26,0.00
2013-2-20,34,25,19,32,18,8,93,75,57,29.91,29.68,23,11,28,0.00
2013-2-21,19,16,13,15,10,6,93,74,68,30.30,29.88,22,9,25,0.00
2013-2-22,35,24,17,21,17,15,93,77,53,30.30,30.03,15,5,25,0.00
2013-2-23,38,35,30,36,31,20,94,86,65,30.03,29.80,17,6,24,0.00
2013-2-24,36,34,28,35,32,23,94,92,74,29.94,29.80,14,5,17,0.00
2013-2-25,35,31,21,25,22,17,88,70,62,30.18,29.94,9,3,11,0.00
2013-2-26,42,30,18,27,20,15,88,69,47,30.18,29.83,17,5,23,0.00
2013-2-27,40,36,35,36,32,27,95,84,72,29.85,29.53,17,3,23,0.00
2013-2-28,35,35,35,34,34,34,95,95,95,29.62,29.53,8,3,10,0.00
2013-3-1,35,35,35,34,34,34,95,95,95,29.83,29.62,16,6,17,0.00
2013-3-2,35,35,35,34,34,34,95,95,95,29.83,29.77,15,6,16,0.00
2013-3-3,35,35,35,34,34,34,95,95,95,29.80,29.74,14,6,15,0.00
2013-3-4,35,35,35,34,34,34,95,95,95,29.77,29.77,6,6,13,0.00
2013-3-7,38,33,30,22,20,18,67,58,49,30.15,30.09,13,8,15,0.00
2013-3-8,30,30,30,20,20,20,67,67,67,30.30,30.12,17,8,20,0.00
2013-3-9,30,30,30,20,20,20,67,67,67,30.33,30.24,9,3,10,0.00
2013-3-10,30,30,30,20,20,20,67,67,67,30.24,30.03,15,6,19,0.00
2013-3-11,30,30,30,20,20,20,67,67,67,30.09,30.09,10,10,11,0.00
2013-3-30,49,41,28,22,19,15,71,42,31,30.12,30.03,11,5,17,0.35
2013-3-31,52,39,26,41,29,18,100,69,41,30.03,29.65,23,5,24,0.00
2013-4-1,40,34,24,40,28,14,100,81,55,29.88,29.56,24,9,28,0.00
2013-4-2,30,25,21,24,16,11,91,67,57,30.00,29.85,26,11,28,0.00
2013-4-3,33,27,22,22,16,10,92,64,46,30.27,30.00,19,9,23,0.00
2013-4-4,51,36,18,24,17,12,86,48,31,30.27,29.91,15,6,17,0.00
2013-4-5,44,35,28,26,18,10,66,49,34,30.03,29.85,17,7,20,0.00
2013-4-6,47,33,21,19,14,8,76,47,29,30.27,30.03,13,4,16,0.00
2013-4-7,64,49,39,37,26,13,68,41,30,30.09,29.80,24,10,28,0.00
2013-4-8,63,49,37,43,32,28,77,55,33,30.09,29.83,9,4,13,0.00
2013-4-9,64,52,43,48,42,36,100,68,40,30.09,29.80,25,7,25,0.00
2013-4-10,51,46,41,51,46,41,100,100,100,30.00,29.83,15,4,18,0.00
2013-4-11,41,36,34,41,36,33,100,100,95,30.06,29.91,11,5,13,0.00
2013-4-12,44,39,34,44,39,34,100,100,98,29.94,29.59,20,6,27,0.00
2013-4-13,47,39,36,38,36,33,100,88,62,29.91,29.77,18,6,22,0.00
2013-4-14,47,36,29,36,30,25,100,77,48,30.18,29.91,14,6,18,0.00
2013-4-15,69,50,28,46,35,24,97,57,42,30.18,30.09,20,6,23,0.00
2013-4-16,63,54,45,58,48,40,100,84,62,30.18,30.00,21,9,25,0.00
2013-4-17,57,44,31,44,33,29,100,68,40,30.30,30.18,13,5,15,0.00
2013-4-18,66,56,36,54,42,30,91,61,44,30.24,29.88,26,10,33,0.00
2013-4-19,71,59,40,58,52,37,100,80,59,29.88,29.47,22,9,29,0.00
2013-4-20,44,38,30,37,28,19,92,68,50,30.33,29.74,28,9,28,0.00
2013-4-21,47,34,26,26,22,18,90,62,37,30.56,30.33,11,5,14,0.00
2013-4-22,58,44,26,30,24,18,93,48,29,30.56,30.39,16,5,20,0.00
2013-4-23,61,48,34,41,31,18,83,53,34,30.39,30.03,18,6,18,0.00
2013-4-24,68,53,40,57,45,37,100,76,49,30.03,29.68,28,8,29,0.00
2013-4-25,58,44,35,37,30,24,88,62,32,30.24,29.94,17,7,22,0.00
2013-4-26,55,42,32,40,33,28,100,73,41,30.42,30.24,13,4,19,0.00
2013-4-27,67,48,30,37,33,29,100,61,30,30.42,30.24,10,3,13,0.00
2013-4-28,72,56,38,46,36,32,88,51,29,30.27,30.09,16,5,22,0.00
2013-4-29,57,52,48,51,46,38,94,79,62,30.15,30.06,15,7,24,0.00
2013-4-30,67,57,51,53,49,45,96,76,52,30.27,30.12,15,6,19,0.00
2013-5-1,77,61,46,48,37,30,89,45,25,30.42,30.27,14,4,15,0.00
2013-5-2,79,62,45,43,38,30,66,41,25,30.45,30.30,10,2,13,0.00
2013-5-3,75,62,47,46,40,30,79,47,28,30.36,30.27,12,4,16,0.20
2013-5-4,76,61,42,44,37,29,65,42,26,30.33,30.18,12,4,12,0.00
2013-5-5,77,62,45,45,38,26,81,43,25,30.24,30.12,12,3,14,0.08
2013-5-6,77,60,44,43,36,26,72,42,25,30.21,30.09,12,4,13,0.00
2013-5-7,79,62,47,56,47,40,100,62,27,30.18,30.06,9,2,11,0.00
2013-5-8,67,60,52,63,56,46,100,86,65,30.12,29.97,11,3,15,0.00
2013-5-9,73,58,49,56,52,46,100,81,40,30.00,29.91,13,4,14,0.00
2013-5-10,72,60,44,63,53,44,100,79,49,30.00,29.83,15,4,19,0.00
2013-5-11,62,57,47,61,55,47,100,94,69,29.83,29.74,13,5,15,0.00
2013-5-12,53,46,37,48,36,26,100,70,42,29.91,29.71,24,8,27,0.00
2013-5-13,47,39,35,32,28,25,79,65,52,30.09,29.91,19,8,22,0.00
2013-5-14,57,42,28,43,28,24,100,63,30,30.15,30.03,12,3,15,0.00
2013-5-15,78,55,35,55,40,25,93,59,43,30.03,29.62,19,5,26,0.00
2013-5-16,77,62,46,47,41,31,86,51,28,29.97,29.77,23,6,25,0.08
2013-5-17,65,51,35,45,39,34,100,66,33,30.24,29.97,12,4,14,0.00
2013-5-18,70,55,35,50,43,35,100,68,38,30.30,30.21,10,2,10,0.00
2013-5-19,69,58,53,58,55,49,98,88,69,30.24,30.09,19,4,20,0.00
2013-5-20,86,70,58,64,61,58,100,77,44,30.12,29.94,12,4,16,0.00
2013-5-21,88,73,63,69,65,56,100,79,45,29.97,29.83,22,4,30,0.04
2013-5-22,88,72,62,70,65,58,100,83,44,29.88,29.77,15,4,20,0.00
2013-5-23,77,67,60,65,62,58,100,86,59,29.85,29.77,14,5,18,0.00
2013-5-24,59,42,38,59,42,38,100,100,91,30.12,29.80,15,7,20,0.00
2013-5-25,53,46,39,41,37,33,91,72,52,30.12,30.09,19,8,25,0.00
2013-5-26,60,49,41,40,37,32,91,65,39,30.18,30.03,19,6,24,0.51
2013-5-27,70,54,38,41,37,32,93,55,30,30.27,30.18,11,4,17,0.00
2013-5-28,61,53,42,58,49,37,100,87,51,30.21,30.06,11,3,13,0.00
2013-5-29,86,68,57,72,65,57,100,91,55,30.09,29.97,25,4,34,0.00
2013-5-30,88,74,60,75,66,60,100,79,46,30.18,30.06,11,3,15,0.00
2013-5-31,94,77,61,74,65,61,100,70,37,30.15,30.00,11,4,15,0.00
2013-6-1,89,76,60,72,65,60,100,72,46,30.03,29.88,15,5,20,0.00
2013-6-2,81,72,64,70,64,54,100,77,46,29.88,29.80,15,6,21,0.00
2013-6-3,66,55,44,59,48,41,100,79,45,30.03,29.88,13,5,16,0.00
2013-6-4,65,52,42,43,40,30,95,67,30,30.18,30.03,13,4,17,0.00
2013-6-5,71,57,42,49,44,40,100,68,38,30.24,30.12,9,2,10,0.00
2013-6-6,59,55,51,58,52,43,100,92,67,30.12,29.91,14,3,19,0.00
2013-6-7,63,60,58,63,60,58,100,100,97,29.91,29.83,10,3,12,0.00
2013-6-8,66,58,56,63,58,56,100,98,76,30.12,29.80,10,3,12,0.00
2013-6-9,78,64,50,62,55,50,100,78,45,30.21,30.12,10,2,13,0.00
2013-6-10,67,63,55,66,61,54,100,94,71,30.21,29.83,11,3,21,0.00
2013-6-11,67,64,59,67,63,59,100,99,92,29.83,29.71,17,6,18,0.00
2013-6-12,76,63,55,59,55,51,100,79,43,29.97,29.83,11,4,13,0.16
2013-6-13,62,59,55,61,59,55,100,99,84,29.85,29.59,13,5,19,0.00
2013-6-14,73,63,56,63,58,56,100,88,57,29.97,29.77,15,4,17,0.00
2013-6-15,76,64,50,64,52,46,100,71,37,30.06,29.97,13,4,17,0.00
2013-6-16,73,65,53,69,59,51,100,84,57,30.03,29.77,13,5,20,0.00
2013-6-17,81,68,56,68,62,56,100,80,47,29.97,29.88,13,4,17,0.00
2013-6-18,72,61,51,68,57,49,100,86,51,30.03,29.94,10,3,12,0.00
2013-6-19,69,57,44,57,45,38,100,70,35,30.21,30.03,13,3,15,0.00
2013-6-20,82,61,40,56,49,40,100,69,35,30.27,30.21,12,3,13,0.00
2013-6-21,84,68,49,66,53,47,100,64,35,30.30,30.24,8,2,11,0.00
2013-6-22,86,74,58,66,62,56,100,69,44,30.24,30.09,13,5,16,0.00
2013-6-23,92,74,68,72,68,65,100,83,45,30.15,30.09,13,4,16,0.00
2013-6-24,90,77,65,74,68,64,100,78,43,30.12,30.03,12,3,16,0.00
2013-6-25,84,72,62,74,68,62,100,87,56,30.06,29.85,14,3,17,0.00
2013-6-26,83,74,65,70,67,63,100,82,54,29.91,29.85,8,3,10,0.00
2013-6-27,82,71,60,75,66,60,100,88,59,29.88,29.68,13,2,15,0.00
2013-6-28,74,68,64,71,67,64,100,98,83,29.68,29.56,8,3,9,0.00
2013-6-29,76,68,63,71,66,63,100,96,74,29.77,29.56,13,2,13,0.00
2013-6-30,84,71,59,71,66,59,100,87,56,29.97,29.77,10,2,10,0.00
2013-7-1,75,70,67,75,70,67,100,100,99,30.06,29.94,6,1,8,0.00
2013-7-2,87,76,67,78,73,67,100,91,66,30.18,30.06,9,2,13,0.00
2013-7-3,90,81,73,75,72,68,100,78,49,30.24,30.15,13,4,13,0.16
2013-7-4,90,80,71,78,74,68,100,83,55,30.24,30.15,11,3,12,0.00
2013-7-5,92,79,70,78,73,68,100,84,48,30.21,30.12,14,4,14,0.04
2013-7-6,90,77,69,76,69,63,100,80,44,30.21,30.09,10,2,11,0.00
2013-7-7,90,78,69,77,72,66,100,84,50,30.12,30.00,10,3,14,0.00
2013-7-8,86,75,68,73,70,65,100,84,53,30.12,30.03,10,3,11,0.00
2013-7-9,88,76,67,76,70,65,100,85,51,30.12,30.00,13,2,15,0.00
2013-7-10,86,76,69,77,73,67,100,90,65,30.00,29.83,13,5,15,0.00
2013-7-11,80,71,61,68,62,58,100,74,51,30.06,29.88,11,4,11,0.00
2013-7-12,80,69,59,70,61,57,100,80,48,30.21,30.06,10,2,13,0.00
2013-7-13,82,72,63,73,67,62,100,86,63,30.33,30.21,8,2,10,0.00
2013-7-14,93,79,68,76,71,67,100,79,46,30.39,30.30,8,3,12,0.08
2013-7-15,89,78,68,78,69,62,100,78,51,30.36,30.30,10,3,13,0.00
2013-7-16,91,76,64,76,68,64,100,79,43,30.33,30.27,10,2,11,0.00
2013-7-17,95,78,64,81,70,64,100,81,43,30.30,30.15,9,2,13,0.00
2013-7-18,91,80,72,77,73,68,100,82,50,30.15,30.03,10,3,14,0.00
2013-7-19,94,82,72,74,70,61,100,72,42,30.03,29.83,17,6,33,0.00
2013-7-20,79,71,61,72,66,55,100,85,46,29.94,29.80,14,3,15,0.00
2013-7-21,81,69,58,73,59,54,100,74,45,30.06,29.94,9,2,13,0.00
2013-7-22,86,71,60,70,66,60,100,86,54,30.06,29.88,10,2,14,0.12
2013-7-23,86,74,67,73,67,62,100,83,47,29.88,29.71,9,2,11,0.00
2013-7-24,72,62,51,68,57,48,100,84,60,30.06,29.74,14,4,14,0.00
2013-7-25,77,61,46,65,50,45,100,71,37,30.15,30.09,11,3,13,0.00
2013-7-26,81,65,49,67,55,49,100,74,39,30.15,30.06,8,2,12,0.00
2013-7-27,81,67,54,72,61,54,100,83,48,30.09,29.94,10,2,13,0.00
2013-7-28,78,69,60,70,65,58,100,90,50,30.03,29.91,10,3,14,0.00
2013-7-29,74,63,54,65,56,50,100,80,44,30.18,30.03,10,2,13,0.00
2013-7-30,79,65,56,64,58,53,100,82,47,30.24,30.18,12,2,13,0.24
2013-7-31,82,67,53,67,57,51,100,75,37,30.21,30.03,8,2,9,0.00
2013-8-1,79,67,59,70,64,59,100,92,60,30.03,29.85,13,3,15,0.00
2013-8-2,76,67,59,67,60,52,100,81,46,29.97,29.88,10,2,11,0.28
2013-8-3,78,68,58,64,58,50,100,73,38,29.97,29.85,13,4,15,0.00
2013-8-4,72,63,54,63,56,48,100,82,48,30.06,29.94,12,4,16,0.00
2013-8-5,75,62,48,63,51,46,100,72,38,30.15,30.06,10,3,13,0.00
2013-8-6,77,64,50,61,53,50,100,72,40,30.12,30.09,11,2,12,0.00
2013-8-7,73,68,63,66,62,58,91,81,70,30.12,30.03,13,4,18,0.00
2013-8-8,72,71,70,71,70,69,100,98,96,30.03,30.00,6,2,9,0.00
2013-8-9,78,72,64,76,71,64,100,97,83,30.00,29.88,10,2,11,0.00
2013-8-10,76,65,52,65,56,49,100,76,46,30.15,29.97,11,3,15,0.00
2013-8-11,78,63,50,64,52,48,100,74,37,30.18,30.09,8,2,11,0.00
2013-8-12,82,68,57,67,58,52,100,76,40,30.12,29.94,9,2,10,0.00
2013-8-13,79,67,58,69,62,50,100,85,54,29.94,29.80,11,4,15,0.00
2013-8-14,70,58,50,59,51,46,100,77,48,30.09,29.85,13,5,17,0.00
2013-8-15,76,61,49,57,51,46,100,75,38,30.18,30.09,11,3,14,0.00
2013-8-16,78,61,49,64,51,45,100,74,36,30.27,30.15,10,2,13,0.00
2013-8-17,83,64,48,69,53,48,100,74,34,30.36,30.27,8,2,8,0.00
2013-8-18,79,65,55,65,57,51,100,79,39,30.30,30.18,8,1,9,0.00
2013-8-19,82,68,58,66,58,52,100,75,38,30.18,30.09,8,2,9,0.00
2013-8-20,84,68,55,70,58,54,100,76,37,30.21,30.12,9,2,11,0.00
2013-8-21,87,70,57,72,59,52,100,73,31,30.24,30.09,8,2,10,0.00
2013-8-22,86,71,60,70,63,58,100,81,44,30.12,29.94,28,2,28,0.00
2013-8-23,74,65,55,69,56,48,100,77,42,30.24,30.03,11,4,14,0.00
2013-8-24,79,62,48,63,50,45,100,73,36,30.39,30.24,8,2,9,0.00
2013-8-25,81,66,49,62,52,49,100,66,35,30.42,30.21,11,4,13,0.00
2013-8-26,74,69,64,71,64,53,100,85,56,30.24,29.97,9,2,10,0.00
2013-8-27,86,72,64,74,68,64,100,87,52,30.03,29.94,9,1,9,0.08
2013-8-28,87,73,66,78,70,65,100,90,50,30.00,29.91,10,1,14,0.00
2013-8-29,87,73,63,76,67,61,100,85,45,30.09,30.00,9,2,13,0.00
2013-8-30,87,73,59,72,64,59,100,78,41,30.09,29.85,10,2,11,0.00
2013-8-31,85,75,69,74,71,67,100,90,55,29.91,29.83,9,2,14,0.00
2013-9-1,86,75,68,74,68,63,100,82,48,29.91,29.83,11,2,38,0.00
2013-9-2,87,72,67,74,69,63,100,90,49,29.88,29.74,12,3,20,0.00
2013-9-3,69,66,62,68,59,50,100,80,54,29.97,29.83,11,4,14,0.00
2013-9-4,82,68,54,63,54,48,100,65,37,30.03,29.97,16,4,17,0.24
2013-9-5,69,60,47,66,48,36,100,67,38,30.24,30.00,15,4,15,0.00
2013-9-6,71,55,41,56,44,35,100,72,34,30.30,30.15,8,2,10,0.00
2013-9-7,69,59,48,61,52,45,100,82,47,30.15,29.94,8,1,9,0.00
2013-9-8,66,59,44,64,51,37,100,79,39,30.15,29.88,15,4,17,0.00
2013-9-9,75,58,40,53,46,38,100,69,38,30.21,30.09,10,3,15,0.00
2013-9-10,89,75,65,72,67,53,100,77,52,30.15,30.03,14,5,17,0.00
2013-9-11,94,80,72,77,71,58,100,78,37,30.15,30.00,17,4,19,0.00
2013-9-12,79,70,65,71,69,63,100,96,59,30.00,29.77,9,3,17,0.00
2013-9-13,65,58,50,64,58,50,100,99,89,30.00,29.77,13,5,15,0.00
2013-9-14,59,52,43,52,47,42,100,87,56,30.15,30.00,10,4,11,0.00
2013-9-15,68,55,41,57,46,41,100,77,38,30.21,30.09,9,2,11,0.00
2013-9-16,62,54,41,60,51,40,100,91,64,30.39,30.09,11,3,13,0.00
2013-9-17,68,50,36,54,40,34,100,75,33,30.50,30.36,8,2,11,0.00
2013-9-18,75,56,41,56,45,41,100,72,31,30.36,30.18,9,2,11,0.00
2013-9-19,81,61,46,61,48,43,100,71,27,30.18,30.09,8,2,10,0.00
2013-9-20,80,65,50,67,53,50,100,71,38,30.09,29.94,12,3,17,0.00
2013-9-21,70,64,58,63,57,52,100,81,59,29.91,29.68,13,5,23,0.00
2013-9-22,59,52,49,59,46,37,100,81,54,30.00,29.74,15,5,17,0.00
2013-9-23,57,48,40,45,40,35,100,76,49,30.15,30.00,10,4,13,0.00
2013-9-24,66,49,36,50,40,36,100,78,38,30.12,30.03,10,3,14,0.00
2013-9-25,71,52,38,59,44,38,100,78,38,30.06,29.97,8,2,11,0.00
2013-9-26,72,55,41,61,47,41,100,79,39,30.15,30.03,10,2,11,0.00
2013-9-27,72,55,43,59,48,43,100,80,41,30.30,30.15,9,2,10,0.63
2013-9-28,71,56,43,56,48,43,100,80,41,30.36,30.27,10,2,11,0.00
2013-9-29,74,57,45,61,48,43,100,76,37,30.27,30.09,13,2,17,0.00
2013-9-30,78,59,46,58,50,46,100,76,35,30.09,30.00,8,2,9,0.00
2013-10-1,76,61,51,64,54,49,100,82,39,30.09,30.00,9,2,11,0.00
2013-10-2,78,62,50,61,54,47,100,78,40,30.12,30.00,13,3,14,0.00
2013-10-3,75,60,44,61,48,38,100,71,28,30.18,30.06,8,1,9,0.00
2013-10-4,76,67,59,69,64,54,100,93,68,30.09,30.03,8,2,10,0.04
2013-10-5,71,66,64,70,66,64,100,99,83,30.12,30.09,7,1,8,0.00
2013-10-6,83,72,66,72,66,64,100,85,52,30.09,29.91,13,3,19,0.00
2013-10-7,76,66,55,65,56,39,98,73,50,30.03,29.71,20,6,20,0.39
2013-10-8,66,54,43,56,44,39,100,71,40,30.39,30.03,10,3,16,0.00
2013-10-9,71,52,37,52,42,36,100,74,29,30.45,30.33,7,2,8,0.00
2013-10-10,67,53,40,53,44,38,100,76,39,30.33,30.18,8,2,8,0.08
2013-10-11,71,57,44,50,44,35,98,64,30,30.18,30.15,10,2,13,0.00
2013-10-12,77,59,41,48,42,34,100,60,26,30.30,30.15,10,2,10,0.00
2013-10-13,71,61,54,52,46,42,89,59,42,30.36,30.30,10,3,13,0.00
2013-10-14,63,63,63,42,42,42,47,47,47,30.30,30.30,8,8,11,0.00
2013-10-17,52,52,52,52,52,52,100,100,100,29.74,29.71,6,5,9,0.00
2013-10-18,60,53,42,53,42,34,100,70,40,29.97,29.71,15,5,20,0.00
2013-10-19,63,52,42,50,41,35,98,67,39,29.97,29.71,19,5,23,0.00
2013-10-20,55,47,42,43,35,32,97,65,45,30.03,29.77,13,5,15,0.47
2013-10-21,64,55,44,41,34,30,83,48,31,30.06,29.88,15,5,18,0.00
2013-10-22,55,48,36,42,32,24,86,56,41,29.88,29.80,14,4,18,0.00
2013-10-23,48,40,33,38,31,26,100,71,43,29.85,29.68,8,3,13,0.04
2013-10-24,50,39,30,36,29,23,100,70,42,29.97,29.80,17,6,24,0.08
2013-10-25,47,39,34,38,34,28,100,82,53,30.15,29.97,11,4,15,0.04
2013-10-26,46,41,38,33,26,22,79,55,43,30.15,29.83,20,7,25,0.04
2013-10-27,49,42,37,34,28,24,80,58,43,30.09,29.83,13,5,16,0.00
2013-10-28,52,41,28,32,27,21,81,57,43,30.36,30.06,15,5,17,0.00
2013-10-29,47,33,21,26,20,13,91,62,32,30.45,30.30,9,2,10,0.00
2013-10-30,58,43,37,41,33,20,100,69,40,30.30,30.18,6,1,8,0.00
2013-10-31,61,54,38,59,51,36,99,91,68,30.15,29.59,17,6,26,0.04
2013-11-1,69,60,51,59,46,33,95,62,30,29.74,29.35,22,9,31,0.00
2013-11-2,57,47,35,45,40,35,100,79,48,29.91,29.68,13,4,15,0.04
2013-11-3,36,31,23,35,20,12,100,63,46,30.47,29.91,15,6,15,0.00
2013-11-4,44,31,18,24,14,11,88,54,30,30.62,30.47,10,3,15,0.00
2013-11-5,55,44,35,32,23,10,54,42,34,30.53,30.36,18,7,22,0.00
2013-11-6,60,53,46,43,38,32,69,57,45,30.39,29.88,19,7,22,0.00
2013-11-7,59,44,36,54,39,24,100,82,56,29.94,29.83,15,6,20,0.00
2013-11-8,40,36,33,34,25,22,97,66,54,30.18,29.91,18,7,20,0.00
2013-11-9,45,39,33,32,25,21,92,58,40,30.21,29.85,13,4,19,0.00
2013-11-10,47,42,34,43,31,25,100,68,44,30.09,29.80,26,8,29,0.00
2013-11-11,43,37,31,35,29,25,100,73,48,30.15,29.94,15,6,17,0.00
2013-11-12,32,26,22,32,20,14,100,78,53,30.30,30.03,15,7,18,0.00
2013-11-13,36,26,16,21,15,10,94,66,45,30.36,30.12,14,5,15,0.00
2013-11-14,51,38,28,20,14,9,47,36,29,30.12,30.06,13,6,23,0.00
2013-11-15,57,44,30,23,16,9,51,32,27,30.15,30.09,13,4,13,0.00
2013-11-16,59,48,35,33,27,15,65,45,30,30.27,30.15,11,4,13,0.00
2013-11-17,58,53,48,54,47,32,92,81,53,30.15,29.56,22,9,28,0.00
2013-11-18,59,49,35,55,33,20,89,55,32,29.85,29.47,23,10,28,0.00
2013-11-19,35,32,27,31,22,14,93,66,54,30.39,29.85,23,7,24,0.00
2013-11-20,40,28,15,16,12,5,87,54,31,30.53,30.39,8,2,10,0.00
2013-11-21,44,36,28,30,18,4,64,46,35,30.50,30.27,16,6,22,0.00
2013-11-22,47,42,34,47,41,29,100,96,69,30.27,29.94,18,5,28,0.00
2013-11-23,36,27,15,29,18,3,90,67,46,30.09,29.91,31,10,31,0.00
2013-11-24,20,16,13,14,11,5,89,81,56,30.30,30.00,18,8,22,0.00
2013-11-25,31,23,11,14,11,6,89,64,38,30.33,30.12,17,5,19,0.00
2013-11-26,37,31,25,36,26,8,100,82,40,30.15,29.80,14,4,15,0.00
2013-11-27,37,31,21,37,29,15,100,95,72,29.80,29.53,10,1,15,0.00
2013-11-28,25,20,14,17,13,5,89,74,56,30.36,29.77,0,0,0,0.00
2013-11-29,27,19,6,20,11,-2,92,73,50,30.65,30.36,11,1,13,0.00
2013-11-30,30,18,0,17,5,-8,76,58,43,30.65,30.21,17,4,24,0.00
2013-12-1,38,33,29,34,23,17,100,67,54,30.21,29.94,10,4,14,0.00
2013-12-2,41,36,33,35,32,28,100,86,61,29.94,29.85,6,1,8,1.57
2013-12-3,43,34,23,36,29,21,100,83,48,29.97,29.85,7,1,11,0.00
2013-12-4,50,39,25,43,34,23,100,84,52,30.06,29.97,10,2,13,0.04
2013-12-5,58,52,45,54,48,40,96,87,67,29.97,29.83,16,7,21,0.00
2013-12-6,45,35,30,44,31,23,100,86,68,30.15,29.94,11,5,15,0.39
2013-12-7,32,28,24,29,17,9,96,65,48,30.45,30.15,13,6,16,0.00
2013-12-8,30,25,18,23,12,8,91,58,46,30.47,30.24,9,3,10,0.00
2013-12-9,40,34,25,36,28,19,91,80,55,30.21,29.85,15,7,24,0.00
2013-12-10,34,26,20,22,15,6,83,62,52,29.97,29.83,15,6,19,0.00
2013-12-11,27,22,15,21,13,4,91,69,50,30.15,29.97,13,6,17,0.00
2013-12-12,21,16,11,14,5,1,82,62,49,30.21,29.97,15,6,18,0.00
2013-12-13,24,18,12,19,11,5,86,73,61,30.27,29.94,26,6,26,0.00
2013-12-14,25,16,8,22,11,2,92,80,65,30.36,29.74,15,4,16,0.00
2013-12-15,28,24,20,26,19,8,94,83,56,29.74,29.53,15,5,23,0.00
2013-12-16,20,13,-5,13,4,-11,80,69,50,30.09,29.74,18,5,23,0.00
2013-12-17,25,14,-8,18,9,-14,87,77,74,30.09,29.85,10,3,16,0.00
2013-12-18,32,26,12,22,18,9,92,72,55,30.00,29.85,17,5,17,0.00
2013-12-19,45,34,26,29,20,13,75,55,43,30.03,29.91,15,6,15,0.00
2013-12-20,48,44,36,48,36,27,100,77,49,30.00,29.83,11,5,13,0.20
2013-12-21,56,51,43,55,51,43,100,99,93,29.85,29.77,12,5,13,0.00
2013-12-22,67,56,39,61,49,39,100,78,49,29.94,29.53,26,9,31,0.00
2013-12-23,45,39,29,44,36,19,100,89,55,30.18,29.94,17,4,24,0.04
2013-12-24,29,22,13,27,18,4,96,82,64,30.33,30.09,19,4,20,0.00
2013-12-25,23,15,0,10,4,-6,77,64,50,30.42,30.21,15,4,17,0.00
2013-12-26,33,26,22,27,19,8,94,75,52,30.18,30.00,12,6,13,0.00
2013-12-27,32,27,21,26,20,10,88,72,61,30.21,30.12,10,4,14,0.00
2013-12-28,48,38,29,32,25,21,89,60,44,30.09,29.94,13,5,15,0.00
2013-12-29,45,39,36,40,31,24,100,76,45,29.94,29.62,11,3,13,0.31
2013-12-30,39,19,7,35,12,-4,95,72,59,30.12,29.68,17,6,18,0.04
2013-12-31,23,16,9,20,6,-2,91,63,52,30.15,29.88,21,6,24,0.04
2014-1-1,22,17,13,8,4,1,72,58,45,30.27,30.15,13,5,17,0.00
2014-1-2,16,11,0,7,3,-8,72,69,65,30.18,29.80,10,4,11,0.00